Hourly Data Report for June 25, 2021

LYTTON RCS
BRITISH COLUMBIA
Current Station Operator: ECCC - MSC

50°13'28.000" N
121°34'55.000" W
225.00 m
1114746
71765
VLY

Download Data

Hourly Data (June 2021)
Hourly Data Report for June 25, 2021
TIME
LST
Temp Definition
°C
Dew Point Definition
°C
Rel Hum Definition
%
Precip. Amount Definition
mm

Wind Dir Definition
10's deg

Wind Spd Definition
km/h
Visibility Definition
km
Stn Press Definition
kPa
Hmdx Definition


Wind Chill Definition


Weather Definition


00:00 19.8 11.7 59 0.0 15 8   99.11     LegendNANA
01:00 19.8 11.3 58 0.0 23 1   99.16     LegendNANA
02:00 18.1 11.3 64 0.0 15 3   99.20     LegendNANA
03:00 16.4 11.4 72 0.0 1 3   99.22     LegendNANA
04:00 16.1 11.4 74 0.0   0   99.29     LegendNANA
05:00 15.6 11.4 76 0.0 12 2   99.34     LegendNANA
06:00 15.6 11.6 77 0.0 15 8   99.36     LegendNANA
07:00 19.2 11.5 61 0.0 20 1   99.36     LegendNANA
08:00 22.6 11.7 50 0.0 18 3   99.32 25   LegendNANA
09:00 28.4 10.3 32 0.0 3 12   99.22 30   LegendNANA
10:00 30.6 9.3 27 0.0 36 16   99.13 32   LegendNANA
11:00 32.7 10.1 25 0.0 36 12   99.08 34   LegendNANA
12:00 33.8 9.9 23 0.0 1 11   98.98 35   LegendNANA
13:00 35.6 11.0 23 0.0 35 13   98.90 37   LegendNANA
14:00 36.6 10.7 21 0.0 35 14   98.81 38   LegendNANA
15:00 37.7 11.1 20 0.0 36 15   98.72 40   LegendNANA
16:00 38.2 11.0 20 0.0 36 16   98.64 40   LegendNANA
17:00 38.0 11.0 20 0.0 34 12   98.59 40   LegendNANA
18:00 37.7 10.2 19 0.0 35 10   98.55 39   LegendNANA
19:00 35.6 10.0 21 0.0 34 9   98.57 37   LegendNANA
20:00 33.8 10.8 25 0.0 1 8   98.67 35   LegendNANA
21:00 31.0 11.8 31 0.0 1 10   98.76 33   LegendNANA
22:00 28.9 12.0 35 0.0 36 8   98.84 31   LegendNANA
23:00 27.8 11.5 36 0.0 1 12   98.91 30   LegendNANA

Notes on Data Quality.

Legend

  • E = Estimated
  • M = Missing
  • NA = Not Available*
  • [empty] = Indicates an unobserved value
Date modified: